Probability
0 0 0 0 0 0 0 0 0 0 0 1 2 1 0 0 1 2 3 3 3 3 2 1 0 0 1 2 4 4 3 2 1 0 0 0 0 0 0 0 1 3 3
0 0 0 0 0 0 0 0 0 0 1 2 2 1 0 0 1 2 3 3 3 3 2 1 1 0 1 2 3 3 2 1 0 0 0 0 0 0 0 1 2 3 3
0 0 0 0 0 0 0 0 0 0 1 3 3 1 0 1 1 2 3 3 3 3 2 2 1 1 1 2 3 2 1 0 1 1 0 0 0 0 0 1 2 2 2
0 0 0 0 0 0 0 0 0 0 1 4 4 3 2 2 3 2 3 3 3 3 3 2 2 2 1 1 2 1 0 1 2 2 1 0 0 0 0 0 1 1 2
0 1 1 0 0 1 1 1 0 0 1 3 4 3 3 3 4 3 3 2 2 3 3 1 2 2 1 0 0 0 1 2 2 2 1 0 0 0 0 0 0 1 2
1 2 2 1 1 1 2 1 1 0 1 3 4 3 3 3 3 3 2 2 3 4 2 1 1 1 1 0 0 0 1 2 1 1 0 0 0 0 0 0 1 1 1
2 2 2 2 2 1 1 1 1 1 1 2 2 2 2 2 2 2 1 2 2 2 1 0 1 1 0 0 0 0 1 1 1 0 1 1 1 0 0 0 1 1 1
2 1 1 2 1 0 0 0 0 0 0 1 1 0 1 1 0 1 1 1 1 1 0 0 1 2 1 0 0 0 0 0 0 0 1 2 1 0 0 0 0 1 2
1 0 0 0 0 0 0 0 0 0 0 0 0 0 0 0 0 0 1 2 1 0 0 0 1 2 2 1 0 0 0 0 0 0 0 1 1 0 0 0 0 1 2
0 0 0 0 0 0 0 0 0 0 0 0 0 0 0 0 0 0 1 1 1 0 0 0 0 1 2 2 1 0 0 0 0 0 0 0 0 0 0 0 0 0 1
0 0 0 0 0 0 0 0 0 0 0 0 0 0 0 0 0 0 0 0 0 0 0 0 0 0 2 2 2 0 0 0 0 0 0 0 0 0 0 0 0 0 0
0 0 0 0 0 0 0 0 0 0 0 0 0 0 0 0 0 0 0 0 0 0 0 0 0 1 2 2 1 0 0 0 0 0 0 0 0 0 0 1 1 0 0
0 0 0 0 0 0 0 0 0 0 0 0 0 0 0 0 0 0 0 0 0 1 1 1 1 2 3 2 1 0 0 0 0 0 0 0 0 0 1 2 2 1 0
0 0 0 0 0 0 0 0 0 0 0 0 0 0 0 0 0 0 0 1 1 2 2 2 2 3 2 1 0 0 0 0 1 0 0 0 0 1 2 3 3 2 1
0 0 0 0 0 0 0 0 0 0 0 0 0 0 0 0 0 0 0 1 2 3 2 2 2 2 1 0 0 0 0 0 1 0 0 0 0 1 2 2 2 1 0
0 0 0 0 0 0 1 0 0 0 0 0 0 0 0 0 0 0 0 1 3 3 2 1 1 1 0 0 0 0 0 0 1 0 0 0 0 0 1 1 1 0 0
0 0 0 0 0 0 0 0 0 0 0 0 0 0 0 0 0 0 0 1 2 3 3 2 1 0 0 0 0 0 0 0 0 0 0 0 0 0 0 0 0 0 0
0 0 0 0 0 0 0 0 0 0 0 0 0 0 0 0 0 0 0 0 1 2 3 2 1 0 0 0 0 0 0 0 0 0 0 0 0 0 0 0 0 0 1
0 0 0 0 0 0 1 1 1 1 0 0 0 0 0 0 0 0 0 0 0 1 2 1 0 0 0 0 0 0 0 0 0 0 0 0 0 0 0 0 0 0 1
0 0 0 0 0 1 2 2 2 1 0 0 0 0 0 0 0 0 0 0 0 0 0 0 0 0 0 0 0 0 0 0 0 0 0 0 0 1 1 0 0 0 1
0 0 0 0 0 2 3 3 1 0 0 0 0 0 0 0 0 0 0 0 0 0 0 0 0 0 0 0 0 0 0 0 0 0 1 1 1 2 2 1 0 0 0
0 0 0 0 1 2 3 2 1 0 0 0 0 0 0 0 0 0 0 0 0 0 0 0 0 0 0 0 0 0 0 0 0 0 1 2 2 2 2 1 0 0 0
0 0 0 1 2 2 2 1 0 0 0 0 0 0 0 0 0 0 0 0 0 0 0 0 0 0 0 0 0 0 0 0 0 0 1 2 2 2 2 1 0 0 0
1 1 0 1 2 2 1 0 0 0 0 0 0 0 0 0 0 0 0 0 0 0 0 0 0 0 0 0 0 0 0 0 0 0 1 2 2 2 1 1 0 0 0
3 3 2 1 1 1 1 0 0 0 0 0 0 0 0 0 0 0 0 0 0 0 0 0 0 0 0 0 0 0 0 0 0 0 0 1 1 1 0 0 0 0 0
5 6 5 3 1 1 0 0 0 0 0 0 0 0 0 0 0 0 0 0 0 0 0 0 0 0 0 0 0 0 0 0 0 0 0 0 0 0 0 0 0 0 0
Wind_Speed
3 5 6 7 7 8 8 8 9 9 9 9 9 9 9 8 8 8 8 8 9 8 8 9 8 9 8 8 9 9 9 9 8 8 8 8 7 7 6 5 4 5 7
3 4 5 6 6 7 8 8 9 9 9 10 9 9 9 9 9 8 9 9 9 9 9 9 9 9 9 9 9 9 9 9 9 8 7 7 7 6 6 6 5 5 7
4 4 4 6 6 7 8 8 9 10 10 10 10 11 11 10 10 9 9 9 9 10 10 10 10 10 10 10 10 10 10 9 8 7 4 5 6 7 6 6 6 6 6
4 4 6 6 6 7 7 9 10 10 10 10 11 11 11 11 10 10 10 10 10 10 10 10 10 10 10 11 11 10 10 9 7 4 3 5 5 8 6 6 6 6 6
5 5 7 6 7 7 8 9 10 11 11 11 11 11 11 11 10 10 11 10 10 10 10 10 10 10 10 10 10 10 9 8 6 4 5 5 5 7 7 6 5 5 6
5 5 7 7 8 8 9 10 11 11 11 11 11 11 11 11 11 11 11 11 11 10 10 10 10 10 10 10 10 9 8 6 4 5 5 5 5 7 6 6 5 5 5
6 6 7 8 8 8 9 10 11 11 12 12 12 12 12 12 11 11 11 11 11 11 11 11 11 11 11 11 10 9 8 5 4 5 4 5 6 7 6 6 6 6 5
5 5 7 8 8 9 9 10 11 11 12 12 12 12 12 12 12 12 11 12 12 11 11 11 11 11 11 10 10 9 8 5 4 5 5 5 7 7 6 6 6 6 5
5 5 5 6 7 8 9 10 10 11 12 12 12 12 12 12 12 11 11 11 11 11 11 11 11 11 10 10 10 9 8 6 4 4 5 5 7 7 6 6 6 6 5
5 5 5 6 6 6 7 10 10 11 11 11 11 11 10 10 11 10 11 11 11 11 11 11 11 10 10 10 9 8 5 3 5 5 4 7 8 6 6 6 6 6 6
5 4 5 5 6 6 6 7 7 8 8 7 8 8 5 6 7 7 12 12 12 12 11 11 11 10 9 10 9 6 3 4 5 5 5 8 8 7 6 6 6 6 6
5 5 4 5 5 5 5 4 4 4 5 5 5 5 5 6 6 7 11 12 12 11 11 11 9 7 4 5 6 3 4 6 5 5 7 9 8 8 7 6 6 6 6
4 4 4 4 4 4 3 3 3 3 3 4 5 6 5 5 4 5 5 6 7 6 7 7 5 5 6 5 5 5 6 5 4 5 7 10 9 9 9 7 6 6 7
4 3 3 3 3 3 3 3 3 3 3 3 4 5 4 4 4 5 4 5 4 4 5 5 4 6 7 7 7 7 7 5 5 4 6 10 10 10 10 9 8 7 7
3 3 3 2 2 3 3 2 3 3 3 4 3 4 5 4 4 5 5 4 5 4 5 4 5 6 6 7 6 7 7 7 7 6 5 11 11 11 10 10 9 9 8
3 3 3 3 2 2 2 2 3 3 3 3 3 4 5 4 4 4 5 5 5 5 5 5 6 5 5 5 6 7 7 6 7 6 6 8 11 12 11 10 9 9 8
3 3 3 2 2 2 2 3 3 2 3 3 3 3 5 5 4 4 4 4 4 4 5 5 6 5 5 5 6 6 6 6 6 6 6 5 6 9 11 11 10 9 8
3 3 4 3 3 3 2 2 2 2 3 3 3 3 4 4 5 4 3 4 4 3 3 4 4 4 4 4 5 5 5 5 6 6 5 5 5 5 7 11 11 10 9
3 4 4 4 3 3 3 3 2 3 3 2 2 3 3 4 4 4 3 3 3 3 3 4 4 4 4 4 4 4 4 5 5 5 5 6 6 5 5 7 9 10 10
2 4 4 4 4 4 3 3 3 2 2 2 2 2 3 3 3 3 2 3 3 2 3 3 4 3 3 3 4 4 4 4 4 5 5 5 5 6 6 5 4 6 9
3 4 4 5 5 4 3 3 2 2 2 2 2 2 3 2 3 3 2 2 2 2 2 3 3 4 3 2 2 3 4 4 5 4 4 4 5 6 5 5 4 4 4
3 4 5 5 5 5 3 2 2 2 2 2 2 2 2 2 2 2 1 2 2 2 2 2 2 1 2 1 1 0 2 3 4 4 4 4 4 4 5 5 5 5 4
3 4 4 5 5 5 5 3 3 2 2 2 2 2 1 1 1 1 1 1 1 1 1 1 1 1 1 1 2 2 1 1 2 3 4 4 4 4 4 4 5 5 5
4 4 5 5 5 6 6 4 4 3 3 2 2 2 2 1 1 1 1 1 1 1 1 1 1 0 0 0 1 2 2 2 0 1 2 4 5 4 4 4 4 4 4
4 4 4 5 5 5 6 5 5 4 2 2 2 2 2 2 1 1 1 1 1 1 1 1 0 0 0 1 1 1 1 1 1 0 1 2 3 3 4 4 3 3 4
4 4 4 4 4 4 5 6 5 5 4 3 3 2 2 1 1 1 1 1 1 1 1 1 0 0 1 1 1 0 0 0 0 0 1 1 2 2 3 3 3 3 2
Wind_Direction
14 20 26 16 33 42 46 52 53 56 60 63 67 72 81 85 87 91 89 89 89 88 93 94 93 94 92 95 100 101 103 104 104 100 99 98 98 101 102 112 124 113 101
23 37 41 27 38 46 50 54 57 58 60 62 63 66 84 91 91 90 89 88 89 88 90 92 90 89 91 93 94 97 99 95 96 98 102 103 99 99 98 94 80 81 98
40 48 65 46 44 49 53 60 61 59 59 60 61 64 77 84 87 89 89 91 90 89 89 92 91 90 92 92 89 88 91 92 95 105 121 106 98 98 96 95 92 89 97
52 50 55 54 53 55 60 64 63 59 59 60 61 65 71 76 79 84 85 88 88 87 87 89 90 89 89 89 86 84 85 86 87 100 103 89 91 93 94 95 94 94 93
63 55 64 54 59 70 68 64 63 61 60 61 61 65 68 72 76 79 80 81 83 84 85 87 87 87 87 88 86 85 86 86 88 89 78 81 84 86 87 89 90 89 88
76 65 69 59 64 70 70 68 65 63 62 62 63 66 68 71 74 78 81 80 80 80 82 85 87 88 87 87 85 82 83 89 103 83 76 78 82 84 83 82 81 83 87
80 76 75 65 66 70 70 72 67 64 65 63 62 64 65 69 71 74 78 80 80 81 82 83 84 84 83 82 79 75 72 74 81 84 80 76 72 75 77 74 73 72 76
78 77 84 82 71 68 68 68 67 67 66 64 63 61 61 63 66 70 74 76 75 76 77 80 83 82 79 76 72 69 62 50 87 83 79 76 73 72 73 69 66 64 68
81 82 81 88 90 84 75 69 69 69 67 64 65 64 64 64 65 68 73 79 79 78 77 79 82 82 80 76 72 70 66 50 61 74 77 73 73 71 71 70 64 64 67
88 84 80 82 83 86 86 74 69 69 66 65 65 64 66 71 73 74 77 79 81 80 78 78 81 85 81 77 73 68 62 55 65 70 70 73 69 68 70 69 67 64 60
89 84 82 83 83 81 79 84 84 82 74 76 76 67 63 69 73 81 75 81 80 79 78 78 79 83 87 84 73 63 51 53 61 61 63 63 61 63 66 68 70 65 63
103 92 84 89 89 86 80 83 79 79 76 63 63 61 53 57 61 72 87 86 84 84 84 78 81 90 86 84 84 75 62 59 56 62 65 59 55 56 60 67 73 71 71
105 97 91 94 95 90 89 79 70 69 69 64 59 62 61 65 73 76 87 96 93 94 87 91 93 74 71 67 62 61 54 53 53 56 63 56 53 53 53 61 68 72 71
109 105 95 93 96 94 92 86 80 76 70 67 64 63 61 62 63 70 75 76 75 75 76 72 71 73 71 71 68 65 62 54 56 55 60 54 50 48 50 53 61 66 67
137 132 118 110 90 89 90 86 90 81 73 77 68 65 68 67 68 73 76 73 71 74 79 74 70 71 68 64 63 63 61 57 56 56 65 60 51 47 46 51 54 59 65
158 145 140 136 115 117 112 107 91 91 88 76 71 69 74 73 73 73 74 72 71 71 70 74 74 71 68 65 65 62 57 57 55 53 56 63 57 48 44 47 51 57 62
169 160 142 131 129 127 114 105 101 94 90 84 76 71 74 73 75 77 74 78 77 78 77 73 73 69 72 74 70 64 60 56 53 52 49 45 55 57 48 44 47 52 59
174 158 146 150 145 130 125 125 114 102 91 86 79 73 76 78 75 76 76 77 81 85 84 81 74 75 75 70 67 63 61 61 55 53 52 49 43 43 54 47 43 47 53
180 166 160 156 149 138 131 128 113 107 101 91 86 79 75 77 79 83 74 75 83 85 85 84 76 69 73 70 70 65 57 55 52 49 51 48 52 45 44 56 52 47 47
185 169 160 158 158 141 139 139 119 108 104 96 89 82 73 75 77 81 89 87 87 92 91 93 90 79 72 73 71 69 63 64 58 47 42 44 43 42 39 40 49 59 54
183 177 166 169 162 155 151 154 141 140 127 109 93 86 90 93 94 87 85 90 85 84 89 101 100 95 85 80 93 90 92 72 59 54 43 42 47 41 38 41 38 38 63
177 184 179 174 172 165 154 152 151 143 141 120 112 106 105 104 101 98 102 102 107 98 102 100 102 90 77 15 347 63 122 114 72 56 49 44 41 44 37 40 41 42 39
187 190 188 186 178 173 161 149 139 146 162 151 145 131 118 110 114 111 88 103 110 120 105 106 119 101 73 62 6 340 343 65 80 73 53 49 44 40 38 35 39 39 45
195 198 196 188 185 176 171 166 173 185 179 169 159 150 154 140 130 138 130 126 122 105 112 148 101 62 351 60 74 11 12 41 321 102 84 61 47 42 38 34 31 35 39
192 197 202 189 182 179 180 177 192 195 185 165 168 167 172 149 159 167 167 163 157 142 136 100 66 312 323 352 16 66 74 65 320 107 87 68 64 51 41 34 31 31 34
186 189 200 196 182 180 187 187 194 191 187 175 178 183 191 173 185 180 178 194 190 177 164 148 181 204 321 6 330 11 331 345 28 115 149 93 63 56 47 39 31 31 29